This demonstration page uses our WeatherBlox Daily Observations layout. Learn more.

Left ArrowRight Arrow

39.92423, -83.80882

Hourly Observations for January 5, 2015

Temp ( °F °C ) Dew Point ( °F °C ) Humidity (%) Winds ( mph kmh ) Pressure ( in mb ) Visibility ( mi km ) Precip ( " mm )
12:56 am 00:56 Cloudy with Light Snow 20 -6.6 14 -10 77 77 W 15 24 30.39 1029 8 13 0.00 0.03
1:56 am 01:56 Mostly Cloudy 18 -7.7 10 -12.2 70 70 W 20 31 30.43 1031 10 16 0.00 0.03
2:56 am 02:56 Cloudy 16 -8.8 9 -12.7 74 74 W 17 28 30.47 1032 10 16 0.00 0.03
3:47 am 03:47 Mostly Clear 14 -10 9 -13 79 79 W 21 33 30.53 1034 9 14 0.00 0.00
3:56 am 03:56 Mostly Clear 14 -10 7 -13.8 74 74 W 18 30 30.50 1033 10 16 0.00 0.00
4:29 am 04:29 Mostly Cloudy with Light Snow 14 -10 9 -13 79 79 WNW 13 20 30.53 1034 9 14 0.00 0.03
4:56 am 04:56 Cloudy with Light Snow 14 -10 9 -12.7 81 81 W 15 24 30.51 1033 7 11 0.00 0.03
5:24 am 05:24 Partly Cloudy 12 -11 7 -14 79 79 W 14 22 30.56 1035 10 16 0.00 0.03
5:35 am 05:35 Mostly Cloudy 12 -11 7 -14 79 79 W 16 26 30.56 1035 9 14 0.00 0.03
5:56 am 05:56 Mostly Cloudy 12 -11.1 5 -15 73 73 W 17 28 30.53 1034 9 14 0.00 0.03
6:04 am 06:04 Partly Cloudy 12 -11 5 -15 73 73 W 15 24 30.59 1036 10 16 0.00 0.00
6:56 am 06:56 Clear 11 -11.6 4 -15.5 73 73 W 15 24 30.55 1035 9 14 0.00 0.00
7:56 am 07:56 Mostly Cloudy 11 -11.6 4 -15.5 73 73 W 15 24 30.59 1036 10 16 0.00 0.00
8:17 am 08:17 Mostly Sunny 10 -12 3 -16 72 72 WNW 17 28 30.68 1039 8 13 0.00 0.00
8:56 am 08:56 Mostly Sunny 10 -12.2 2 -16.6 70 70 WNW 21 33 30.63 1037 8 13 0.00 0.00
9:56 am 09:56 Sunny 11 -11.6 1 -17.2 64 64 W 16 26 30.65 1038 9 14 0.00 0.00
10:56 am 10:56 Sunny 12 -11.1 1 -17.2 61 61 W 17 28 30.65 1038 9 14 0.00 0.00
11:56 am 11:56 Sunny 11 -11.6 0 -17.7 61 61 W 15 24 30.64 1038 9 14 0.00 0.00
12:56 pm 12:56 Sunny 14 -10 0 -17.7 54 54 W 15 24 30.62 1037 10 16 0.00 0.00
1:56 pm 13:56 Sunny 15 -9.4 1 -17.2 53 53 W 14 22 30.60 1036 9 14 0.00 0.00
2:56 pm 14:56 Sunny 14 -10 0 -17.7 54 54 W 9 15 30.59 1036 10 16 0.00 0.00
3:56 pm 15:56 Sunny 15 -9.4 1 -17.2 53 53 WSW 12 19 30.59 1036 9 14 0.00 0.00
4:56 pm 16:56 Sunny 14 -10 2 -16.6 59 59 WSW 12 19 30.60 1036 10 16 0.00 0.00
5:56 pm 17:56 Clear 14 -10 3 -16.1 61 61 WSW 10 17 30.59 1036 10 16 0.00 0.00
6:56 pm 18:56 Clear 14 -10 4 -15.5 64 64 SSW 7 11 30.55 1035 10 16 0.00 0.00
7:56 pm 19:56 Clear 14 -10 4 -15.5 64 64 S 3 6 30.52 1034 10 16 0.00 0.00
8:56 pm 20:56 Clear 14 -10 5 -15 67 67 S 3 6 30.49 1033 10 16 0.00 0.00
9:56 pm 21:56 Mostly Cloudy 15 -9.4 6 -14.4 67 67 S 6 9 30.47 1032 10 16 0.00 0.00
10:38 pm 22:38 Mostly Cloudy with Haze 16 -9 7 -14 67 67 S 5 7 30.45 1031 6 10 0.00 0.00
10:44 pm 22:44 Cloudy with Light Snow 16 -9 9 -13 73 73 S 7 11 30.45 1031 3 4 0.00 0.03
10:49 pm 22:49 Cloudy with Light Snow 16 -9 9 -13 73 73 S 7 11 30.45 1031 2 3 0.00 0.03
10:56 pm 22:56 Cloudy with Light Snow 15 -9.4 10 -12.2 80 80 S 7 11 30.43 1030 2 3 0.00 0.03
11:21 pm 23:21 Cloudy with Light Snow 16 -9 10 -12 79 79 S 7 11 30.45 1031 2 2 0.00 0.03
11:28 pm 23:28 Cloudy with Light Snow 16 -9 12 -11 86 86 S 6 9 30.45 1031 1 2 0.00 0.03
11:56 pm 23:56 Cloudy with Light Snow 15 -9.4 12 -11.1 88 88 S 6 9 30.42 1030 2 3 0.00 0.03

Powered by AerisWeather